Broomfield, CO

8:12 PM MST on February 10, 2016 (GMT -0700)
Jeffco

Weather History for KBJC - March, 2013

Change the Weather History Date:

Saturday, March 23, 2013

  Actual Average Record
Temperature  
Mean Temperature 29 °F -  
Max Temperature 46 °F 53 °F 75 °F (1993)
Min Temperature 12 °F 32 °F 12 °F (1987)
Degree Days  
Heating Degree Days 36    
Moisture  
Dew Point 16 °F    
Average Humidity 83    
Maximum Humidity 93    
Minimum Humidity 25    
Precipitation  
Precipitation 0.00 in - - ()
Sea Level Pressure  
Sea Level Pressure 29.98 in    
Wind  
Wind Speed 14 mph (NNW)    
Max Wind Speed 21 mph    
Max Gust Speed 29 mph    
Visibility 4 miles    
Events Snow    
Averages and records for this station are not official NWS values.
T = Trace of Precipitation, MM = Missing Value Source: NWS Daily Summary

Daily Weather History Graph

Daily Weather History Graph

Search for Another Location

Airport or City:

Trip Planner

Search our weather history database for the weather conditions in past years. The results will help you decide how hot, cold, wet, or windy it might be!

Date:

Astronomy

Mar. 23, 2013 Rise Set
Actual Time 6:58 AM MDT 7:15 PM MDT
Civil Twilight 6:31 AM MDT 7:42 PM MDT
Nautical Twilight 5:59 AM MDT 8:14 PM MDT
Astronomical Twilight 5:27 AM MDT 8:47 PM MDT
Moon 3:45 PM MDT (3/23) 4:36 AM MDT (3/23)
Length of Visible Light 13h 11m
Length of Day
12h 17m
Waxing Gibbous, 85% of the Moon is Illuminated
Mar 23
Waxing Gibbous
Mar 27
Full
Apr 2
Last Quarter
Apr 10
New
Apr 18
First Quarter

Hourly Weather History & Observations

Time (MDT) Temp. Windchill Dew Point Humidity Pressure Visibility Wind Dir Wind Speed Gust Speed Precip Events Conditions
12:15 AM 26.6 °F 13.8 °F 24.8 °F 93% 29.89 in 0.8 mi North 17.3 mph 21.9 mph N/A Snow Snow
12:35 AM 26.6 °F 13.8 °F 23.0 °F 86% 29.89 in 1.0 mi North 17.3 mph - N/A Snow Snow
12:55 AM 26.6 °F 14.7 °F 23.0 °F 86% 29.89 in 1.5 mi North 15.0 mph - N/A Snow Light Snow
1:15 AM 24.8 °F 14.0 °F 23.0 °F 93% 29.88 in 3.0 mi NNE 11.5 mph - N/A Snow Light Snow
1:35 AM 24.8 °F 10.3 °F 21.2 °F 86% 29.88 in 1.2 mi North 20.7 mph - N/A Snow Light Snow
1:55 AM 23.0 °F 8.7 °F 21.2 °F 93% 29.88 in 1.2 mi North 18.4 mph - N/A Snow Light Snow
2:15 AM 23.0 °F 9.6 °F 21.2 °F 93% 29.88 in 1.2 mi North 16.1 mph 23.0 mph N/A Snow Snow
2:35 AM 23.0 °F 10.6 °F 21.2 °F 93% 29.87 in 1.0 mi North 13.8 mph - N/A Snow Snow
2:55 AM 23.0 °F 9.6 °F 21.2 °F 93% 29.88 in - North 16.1 mph 21.9 mph N/A   Overcast
3:15 AM 23.0 °F 9.6 °F 19.4 °F 86% 29.88 in - North 16.1 mph - N/A   Overcast
3:35 AM 23.0 °F 10.6 °F 19.4 °F 86% 29.88 in - North 13.8 mph - N/A   Overcast
3:55 AM 23.0 °F 12.4 °F 19.4 °F 86% 29.87 in - North 10.4 mph - N/A   Overcast
4:15 AM 23.0 °F 11.7 °F 21.2 °F 93% 29.87 in - North 11.5 mph - N/A   Overcast
4:35 AM 23.0 °F 12.4 °F 21.2 °F 93% 29.88 in - NNW 10.4 mph - N/A   Overcast
4:55 AM 23.0 °F 12.4 °F 21.2 °F 93% 29.87 in - North 10.4 mph - N/A   Overcast
5:15 AM 23.0 °F 10.6 °F 21.2 °F 93% 29.88 in - North 13.8 mph - N/A   Overcast
5:35 AM 23.0 °F 10.6 °F 19.4 °F 86% 29.88 in - North 13.8 mph - N/A   Overcast
5:47 AM 21.2 °F 7.8 °F 19.4 °F 93% 29.88 in 0.5 mi NNW 15.0 mph 21.9 mph N/A Snow Snow
5:55 AM 23.0 °F 10.6 °F 19.4 °F 86% 29.88 in - NNW 13.8 mph - N/A   Overcast
6:47 AM 21.2 °F 8.3 °F 19.4 °F 93% 29.89 in 0.5 mi NNW 13.8 mph - N/A Snow Snow
8:46 AM 19.4 °F 5.0 °F 15.8 °F 86% 29.95 in 0.2 mi North 16.1 mph - N/A Snow Heavy Snow
9:51 AM 17.6 °F 0.9 °F 14.0 °F 86% 29.97 in 0.2 mi North 20.7 mph 28.8 mph N/A Snow Heavy Snow
10:50 AM 17.6 °F 2.2 °F 12.2 °F 79% 30.01 in 0.5 mi North 17.3 mph 24.2 mph N/A Snow Snow
11:45 AM 17.6 °F 3.2 °F 12.2 °F 79% 30.03 in 0.2 mi North 15.0 mph - N/A Snow Snow
12:05 PM 17.6 °F 2.2 °F 12.2 °F 79% 30.03 in 0.5 mi North 17.3 mph - N/A Snow Snow
12:50 PM 46.4 °F 40.4 °F 12.2 °F 25% 30.04 in 0.5 mi North 13.8 mph - N/A   Unknown
1:49 PM 17.6 °F 4.3 °F 12.2 °F 79% 30.05 in 0.5 mi North 12.7 mph - N/A Snow Light Snow
2:49 PM 19.4 °F 6.0 °F 14.0 °F 80% 30.05 in 0.8 mi North 13.8 mph - N/A Snow Light Snow
3:49 PM 19.4 °F 7.9 °F 14.0 °F 80% 30.06 in 0.8 mi North 10.4 mph - N/A Snow Light Snow
4:46 PM 19.4 °F 9.5 °F 14.0 °F 80% 30.07 in 1.0 mi NNW 8.1 mph - N/A Snow Light Snow
5:25 PM 19.4 °F 12.8 °F 14.0 °F 80% 30.08 in 1.5 mi NNW 4.6 mph - N/A Snow Light Snow
5:53 PM 19.4 °F 11.5 °F 14.0 °F 80% 30.08 in 1.8 mi NW 5.8 mph - N/A Snow Light Snow
6:22 PM 19.4 °F 12.8 °F 14.0 °F 80% 30.09 in 5.0 mi WNW 4.6 mph - N/A   Overcast
6:46 PM 17.6 °F 9.3 °F 12.2 °F 79% 30.09 in 8.0 mi West 5.8 mph - N/A   Overcast
7:38 PM 14.0 °F 6.5 °F 10.4 °F 86% 30.10 in 10.0 mi West 4.6 mph - N/A   Mostly Cloudy
7:47 PM 14.0 °F 3.9 °F 10.4 °F 86% 30.10 in 10.0 mi West 6.9 mph - N/A   Mostly Cloudy
8:49 PM 12.2 °F -0.2 °F 8.6 °F 85% 30.12 in 15.0 mi West 9.2 mph - N/A   Scattered Clouds
9:49 PM 12.2 °F -0.2 °F 5.0 °F 73% 30.13 in 15.0 mi West 9.2 mph - N/A   Scattered Clouds
11:15 PM 14.0 °F 2.9 °F 5.0 °F 67% 30.12 in 10.0 mi West 8.1 mph - N/A   Mostly Cloudy
11:35 PM 14.0 °F 3.9 °F 3.2 °F 62% 30.12 in 10.0 mi West 6.9 mph - N/A   Mostly Cloudy
11:55 PM 12.2 °F 1.7 °F 3.2 °F 67% 30.11 in 10.0 mi West 6.9 mph - N/A   Mostly Cloudy